Weather History for KEWK - October, 2012

Change the Weather History Date:

Thursday, October 4, 2012

  Actual Average Record
Temperature  
Mean Temperature 58 °F -  
Max Temperature 66 °F 70 °F 89 °F (2007)
Min Temperature 50 °F 49 °F 32 °F (1999)
Degree Days  
Heating Degree Days 7    
Growing Degree Days 8 (Base 50)    
Moisture  
Dew Point 39 °F    
Average Humidity 55    
Maximum Humidity 63    
Minimum Humidity 51    
Precipitation  
Precipitation 0.00 in - - ()
Sea Level Pressure  
Sea Level Pressure 30.19 in    
Wind  
Wind Speed 14 mph (NNE)    
Max Wind Speed 26 mph    
Max Gust Speed 33 mph    
Visibility 10 miles    
Events      
Averages and records for this station are not official NWS values.
T = Trace of Precipitation, MM = Missing Value Source: NWS Daily Summary

Daily Weather History Graph

Daily Weather History Graph

Search for Another Location

Airport or City:

Trip Planner

Search our weather history database for the weather conditions in past years. The results will help you decide how hot, cold, wet, or windy it might be!

Date:

Astronomy

Oct. 04, 2012 Rise Set
Actual Time 7:27 AM CDT 7:06 PM CDT
Civil Twilight 7:01 AM CDT 7:32 PM CDT
Nautical Twilight 6:31 AM CDT 8:03 PM CDT
Astronomical Twilight 6:00 AM CDT 8:34 PM CDT
Moon 9:47 PM CDT (10/4) 11:41 AM CDT (10/4)
Length of Visible Light 12h 31m
Length of Day
11h 38m
Waning Gibbous, 82% of the Moon is Illuminated
Oct 4
Waning Gibbous
Oct 8
Last Quarter
Oct 15
New
Oct 21
First Quarter
Oct 29
Full

Hourly Weather History & Observations

Time (CDT) Temp. Dew Point Humidity Pressure Visibility Wind Dir Wind Speed Gust Speed Precip Events Conditions
12:15 AM 64.4 °F 48.2 °F 56% 29.94 in 10.0 mi South 16.1 mph - N/A   Clear
12:35 AM 64.4 °F 48.2 °F 56% 29.95 in 10.0 mi South 16.1 mph - N/A   Clear
12:55 AM 64.4 °F 48.2 °F 56% 29.95 in 10.0 mi SSW 16.1 mph - N/A   Clear
1:15 AM 64.4 °F 48.2 °F 56% 29.95 in 10.0 mi SSW 16.1 mph - N/A   Clear
1:35 AM 66.2 °F 48.2 °F 52% 30.00 in 10.0 mi SW 8.1 mph 23.0 mph N/A   Clear
1:55 AM 66.2 °F 48.2 °F 52% 30.04 in 10.0 mi NW 10.4 mph - N/A   Clear
2:15 AM 64.4 °F 48.2 °F 56% 30.04 in 10.0 mi WSW 9.2 mph - N/A   Clear
2:35 AM 64.4 °F 48.2 °F 56% 30.02 in 10.0 mi SSW 9.2 mph - N/A   Clear
2:55 AM 62.6 °F 48.2 °F 59% 30.03 in 10.0 mi SW 11.5 mph - N/A   Clear
3:15 AM 62.6 °F 48.2 °F 59% 30.04 in 10.0 mi WSW 9.2 mph - N/A   Clear
3:35 AM 62.6 °F 48.2 °F 59% 30.05 in 10.0 mi WSW 5.8 mph - N/A   Clear
3:55 AM 60.8 °F 48.2 °F 63% 30.06 in 10.0 mi WSW 5.8 mph - N/A   Clear
4:15 AM 60.8 °F 48.2 °F 63% 30.08 in 10.0 mi NW 13.8 mph 20.7 mph N/A   Scattered Clouds
4:35 AM 57.2 °F 42.8 °F 59% 30.09 in 10.0 mi NNW 15.0 mph - N/A   Scattered Clouds
4:55 AM 55.4 °F 42.8 °F 63% 30.10 in 10.0 mi North 12.7 mph - N/A   Mostly Cloudy
5:15 AM 53.6 °F 39.2 °F 58% 30.11 in 10.0 mi North 21.9 mph 27.6 mph N/A   Mostly Cloudy
5:35 AM 53.6 °F 39.2 °F 58% 30.13 in 10.0 mi North 20.7 mph 26.5 mph N/A   Mostly Cloudy
5:55 AM 53.6 °F 37.4 °F 54% 30.14 in 10.0 mi North 23.0 mph 28.8 mph N/A   Mostly Cloudy
6:15 AM 51.8 °F 37.4 °F 58% 30.15 in 10.0 mi North 19.6 mph 26.5 mph N/A   Partly Cloudy
6:35 AM 51.8 °F 37.4 °F 58% 30.16 in 10.0 mi North 16.1 mph 23.0 mph N/A   Clear
6:55 AM 51.8 °F 37.4 °F 58% 30.17 in 10.0 mi North 16.1 mph 21.9 mph N/A   Clear
7:15 AM 51.8 °F 37.4 °F 58% 30.17 in 10.0 mi North 15.0 mph 21.9 mph N/A   Clear
7:35 AM 51.8 °F 37.4 °F 58% 30.18 in 10.0 mi North 20.7 mph 27.6 mph N/A   Clear
7:55 AM 51.8 °F 37.4 °F 58% 30.19 in 10.0 mi North 18.4 mph 24.2 mph N/A   Clear
8:15 AM 51.8 °F 37.4 °F 58% 30.20 in 10.0 mi North 18.4 mph 23.0 mph N/A   Clear
8:35 AM 51.8 °F 37.4 °F 58% 30.21 in 10.0 mi North 16.1 mph 27.6 mph N/A   Clear
8:55 AM 50.0 °F 37.4 °F 62% 30.23 in 10.0 mi North 24.2 mph 31.1 mph N/A   Clear
9:15 AM 50.0 °F 37.4 °F 62% 30.24 in 10.0 mi North 23.0 mph 27.6 mph N/A   Clear
9:35 AM 51.8 °F 37.4 °F 58% 30.24 in 10.0 mi North 26.5 mph 31.1 mph N/A   Clear
9:55 AM 51.8 °F 37.4 °F 58% 30.25 in 10.0 mi North 23.0 mph 33.4 mph N/A   Clear
10:15 AM 53.6 °F 37.4 °F 54% 30.26 in 10.0 mi North 25.3 mph 32.2 mph N/A   Clear
10:35 AM 53.6 °F 37.4 °F 54% 30.27 in 10.0 mi NNW 20.7 mph 28.8 mph N/A   Mostly Cloudy
10:55 AM 53.6 °F 37.4 °F 54% 30.27 in 10.0 mi North 25.3 mph 29.9 mph N/A   Overcast
11:15 AM 51.8 °F 35.6 °F 54% 30.27 in 10.0 mi North 23.0 mph 31.1 mph N/A   Overcast
11:35 AM 51.8 °F 35.6 °F 54% 30.28 in 10.0 mi North 21.9 mph 25.3 mph N/A   Overcast
11:55 AM 51.8 °F 35.6 °F 54% 30.28 in 10.0 mi North 21.9 mph 26.5 mph N/A   Overcast
12:15 PM 53.6 °F 35.6 °F 51% 30.28 in 10.0 mi North 23.0 mph 27.6 mph N/A   Overcast
12:35 PM 53.6 °F 37.4 °F 54% 30.27 in 10.0 mi North 21.9 mph 25.3 mph N/A   Overcast
12:55 PM 53.6 °F 35.6 °F 51% 30.28 in 8.0 mi North 18.4 mph 26.5 mph N/A   Overcast
1:35 PM 53.6 °F 35.6 °F 51% 30.27 in 10.0 mi North 18.4 mph 23.0 mph N/A   Overcast
1:55 PM 53.6 °F 35.6 °F 51% 30.26 in 10.0 mi NNE 18.4 mph 23.0 mph N/A   Overcast
2:15 PM 53.6 °F 35.6 °F 51% 30.26 in 10.0 mi North 15.0 mph 18.4 mph N/A   Overcast
2:35 PM 53.6 °F 37.4 °F 54% 30.26 in 10.0 mi North 18.4 mph 25.3 mph N/A   Overcast
2:55 PM 53.6 °F 35.6 °F 51% 30.25 in 10.0 mi NNE 17.3 mph 21.9 mph N/A   Overcast
3:15 PM 53.6 °F 35.6 °F 51% 30.24 in 10.0 mi NNE 18.4 mph 25.3 mph N/A   Overcast
3:35 PM 53.6 °F 35.6 °F 51% 30.25 in 10.0 mi NNE 15.0 mph 18.4 mph N/A   Overcast
3:55 PM 53.6 °F 35.6 °F 51% 30.25 in 10.0 mi NNE 16.1 mph 20.7 mph N/A   Overcast
4:15 PM 53.6 °F 35.6 °F 51% 30.24 in 10.0 mi NNE 16.1 mph 19.6 mph N/A   Overcast
4:35 PM 53.6 °F 35.6 °F 51% 30.24 in 10.0 mi NE 12.7 mph - N/A   Overcast
4:55 PM 53.6 °F 35.6 °F 51% 30.24 in 10.0 mi NE 11.5 mph - N/A   Overcast
5:15 PM 53.6 °F 35.6 °F 51% 30.24 in 10.0 mi NE 9.2 mph - N/A   Overcast
5:35 PM 53.6 °F 35.6 °F 51% 30.24 in 10.0 mi ENE 8.1 mph - N/A   Overcast
5:55 PM 53.6 °F 35.6 °F 51% 30.24 in 10.0 mi ENE 5.8 mph - N/A   Overcast
6:15 PM 53.6 °F 35.6 °F 51% 30.24 in 10.0 mi East 5.8 mph - N/A   Overcast
6:35 PM 53.6 °F 35.6 °F 51% 30.24 in 10.0 mi East 6.9 mph - N/A   Overcast
6:55 PM 51.8 °F 35.6 °F 54% 30.25 in 10.0 mi East 5.8 mph - N/A   Overcast
7:15 PM 51.8 °F 35.6 °F 54% 30.24 in 10.0 mi ENE 4.6 mph - N/A   Overcast
7:35 PM 51.8 °F 35.6 °F 54% 30.24 in 10.0 mi East 3.5 mph - N/A   Overcast
7:55 PM 51.8 °F 35.6 °F 54% 30.24 in 10.0 mi ENE 3.5 mph - N/A   Overcast
8:15 PM 51.8 °F 35.6 °F 54% 30.25 in 10.0 mi ENE 5.8 mph - N/A   Overcast
8:35 PM 51.8 °F 35.6 °F 54% 30.25 in 10.0 mi ENE 3.5 mph - N/A   Overcast
8:55 PM 51.8 °F 35.6 °F 54% 30.25 in 10.0 mi ENE 3.5 mph - N/A   Overcast
9:15 PM 51.8 °F 37.4 °F 58% 30.25 in 10.0 mi NE 3.5 mph - N/A   Overcast
9:35 PM 51.8 °F 35.6 °F 54% 30.25 in 10.0 mi NE 3.5 mph - N/A   Overcast
9:55 PM 51.8 °F 37.4 °F 58% 30.25 in 10.0 mi NE 3.5 mph - N/A   Overcast
10:15 PM 51.8 °F 37.4 °F 58% 30.25 in 10.0 mi NE 3.5 mph - N/A   Overcast
10:35 PM 51.8 °F 37.4 °F 58% 30.26 in 10.0 mi NNE 4.6 mph - N/A   Overcast
10:55 PM 51.8 °F 37.4 °F 58% 30.27 in 10.0 mi NNE 3.5 mph - N/A   Overcast
11:15 PM 51.8 °F 37.4 °F 58% 30.27 in 10.0 mi NNE 4.6 mph - N/A   Overcast
11:35 PM 51.8 °F 37.4 °F 58% 30.27 in 10.0 mi NNE 5.8 mph - N/A   Overcast
11:55 PM 51.8 °F 37.4 °F 58% 30.27 in 10.0 mi NNE 8.1 mph - N/A   Overcast